Weather History for KIPT - June, 2013

Change the Weather History Date:

Saturday, June 15, 2013

  Actual Average Record
Temperature  
Mean Temperature 67 °F 69 °F  
Max Temperature 80 °F 80 °F 97 °F (1991)
Min Temperature 54 °F 58 °F 42 °F (1939)
Degree Days  
Heating Degree Days 0 1  
Month to date heating degree days 9 29  
Since 1 June heating degree days 9 29  
Since 1 July heating degree days 5669 5987  
Cooling Degree Days 2 5  
Month to date cooling degree days 47 56  
Year to date cooling degree days 118 99  
Since 1 June cooling degree days 47 56  
Growing Degree Days 17 (Base 50)    
Moisture  
Dew Point 53 °F    
Average Humidity 65    
Maximum Humidity 93    
Minimum Humidity 36    
Precipitation  
Precipitation 0.00 in 0.13 in 1.45 in (1981)
Month to date precipitation 2.86 1.94  
Year to date precipitation 15.43 16.85  
Sea Level Pressure  
Sea Level Pressure 29.99 in    
Wind  
Wind Speed 6 mph (West)    
Max Wind Speed 16 mph    
Max Gust Speed 21 mph    
Visibility 10 miles    
Events      
T = Trace of Precipitation, MM = Missing Value Source: NWS Daily Summary

Daily Weather History Graph

Daily Weather History Graph

Search for Another Location

Airport or City:

Trip Planner

Search our weather history database for the weather conditions in past years. The results will help you decide how hot, cold, wet, or windy it might be!

Date:

Astronomy

Jun. 15, 2013 Rise Set
Actual Time 5:34 AM EDT 8:42 PM EDT
Civil Twilight 5:00 AM EDT 9:16 PM EDT
Nautical Twilight 4:17 AM EDT 9:59 PM EDT
Astronomical Twilight 3:25 AM EDT 10:51 PM EDT
Moon 12:10 PM EDT (6/15) 12:13 AM EDT (6/15)
Length of Visible Light 16h 15m
Length of Day
15h 08m
Waxing Crescent, 39% of the Moon is Illuminated
Jun 15
Waxing Crescent
Jun 16
First Quarter
Jun 23
Full
Jun 30
Last Quarter
Jul 8
New

Hourly Weather History & Observations

Time (EDT) Temp. Dew Point Humidity Pressure Visibility Wind Dir Wind Speed Gust Speed Precip Events Conditions
12:54 AM 57.9 °F 54.0 °F 87% 29.97 in 10.0 mi NNW 3.5 mph - N/A   Clear
1:54 AM 55.9 °F 53.1 °F 90% 29.98 in 10.0 mi NNW 3.5 mph - N/A   Clear
2:54 AM 55.9 °F 52.0 °F 87% 29.98 in 10.0 mi Calm Calm - N/A   Clear
3:54 AM 55.9 °F 53.1 °F 90% 29.98 in 10.0 mi WNW 5.8 mph - N/A   Clear
4:54 AM 55.9 °F 52.0 °F 87% 29.98 in 10.0 mi Calm Calm - N/A   Clear
5:54 AM 55.0 °F 51.1 °F 86% 30.00 in 10.0 mi Calm Calm - N/A   Clear
6:54 AM 57.0 °F 53.1 °F 87% 30.03 in 10.0 mi West 8.1 mph - N/A   Clear
7:54 AM 61.0 °F 54.0 °F 78% 30.04 in 10.0 mi West 9.2 mph - N/A   Clear
8:54 AM 64.0 °F 55.0 °F 73% 30.05 in 10.0 mi West 8.1 mph - N/A   Clear
9:54 AM 66.9 °F 55.9 °F 68% 30.05 in 10.0 mi West 6.9 mph - N/A   Clear
10:54 AM 71.1 °F 55.0 °F 57% 30.04 in 10.0 mi West 9.2 mph - N/A   Clear
11:54 AM 75.0 °F 55.0 °F 50% 30.02 in 10.0 mi West 10.4 mph - N/A   Clear
12:54 PM 73.9 °F 53.1 °F 48% 30.00 in 10.0 mi WSW 11.5 mph 19.6 mph N/A   Scattered Clouds
1:54 PM 77.0 °F 51.1 °F 40% 29.99 in 10.0 mi WSW 9.2 mph - N/A   Scattered Clouds
2:54 PM 80.1 °F 51.1 °F 36% 29.96 in 10.0 mi WSW 12.7 mph - N/A   Scattered Clouds
3:54 PM 79.0 °F 51.1 °F 38% 29.96 in 10.0 mi West 10.4 mph - N/A   Scattered Clouds
4:54 PM 79.0 °F 51.1 °F 38% 29.96 in 10.0 mi SW 10.4 mph - N/A   Clear
5:54 PM 77.0 °F 50.0 °F 39% 29.95 in 10.0 mi WSW 8.1 mph - N/A   Mostly Cloudy
6:54 PM 77.0 °F 52.0 °F 42% 29.96 in 10.0 mi WSW 6.9 mph - N/A   Mostly Cloudy
7:54 PM 73.9 °F 53.1 °F 48% 29.97 in 10.0 mi WSW 3.5 mph - N/A   Clear
8:54 PM 70.0 °F 55.0 °F 59% 29.97 in 10.0 mi Calm Calm - N/A   Clear
9:54 PM 64.9 °F 55.0 °F 70% 29.99 in 10.0 mi Calm Calm - N/A   Clear
10:54 PM 62.1 °F 54.0 °F 75% 29.99 in 10.0 mi Calm Calm - N/A   Clear
11:54 PM 59.0 °F 54.0 °F 83% 30.01 in 10.0 mi NNW 3.5 mph - N/A   Clear